Terminal Aerodrome Forecast
Issued by NWS Knoxville/Tri Cities, TN

Home | Current Version | Previous Version | Text Only | Print | Product List | Glossary On
Versions: 1 2 3 4 5 6 7 8 9 10 11 12 13 14 15 16 17 18 19 20 21 22 23 24 25 26 27 28 29
000
FTUS44 KMRX 211221 AAA
TAFCHA
TAF AMD
KCHA 211221Z 2112/2212 00000KT P6SM SCT005
     FM211400 25004KT P6SM SCT040 SCT250
     FM211800 28006KT P6SM SCT060
     FM220100 00000KT P6SM BKN250=

USA.gov is the U.S. government's official web portal to all federal, state and local government web resources and services.